Weather History for El Centro, CA

Change the Weather History Date:

Saturday, February 8, 2014

  Actual Average Record
Temperature  
Mean Temperature 59 °F -  
Max Temperature 73 °F 68 °F 82 °F (2006)
Min Temperature 45 °F 44 °F 37 °F (1997)
Degree Days  
Heating Degree Days 6    
Growing Degree Days 9 (Base 50)    
Moisture  
Dew Point 38 °F    
Average Humidity 49    
Maximum Humidity 71    
Minimum Humidity 26    
Precipitation  
Precipitation 0.00 in - - ()
Sea Level Pressure  
Sea Level Pressure 30.17 in    
Wind  
Wind Speed 5 mph (ESE)    
Max Wind Speed 9 mph    
Max Gust Speed -    
Visibility 10 miles    
Events      
Averages and records for this station are not official NWS values.
T = Trace of Precipitation, MM = Missing Value Source: NWS Daily Summary

Daily Weather History Graph

Daily Weather History Graph

Search for Another Location

Airport:

Trip Planner

Search our weather history database for the weather conditions in past years. The results will help you decide how hot, cold, wet, or windy it might be!

Date:

Astronomy

Feb. 08, 2014 Rise Set
Actual Time 6:32 AM PST 5:21 PM PST
Civil Twilight 6:06 AM PST 5:47 PM PST
Nautical Twilight 5:37 AM PST 6:16 PM PST
Astronomical Twilight 5:08 AM PST 6:45 PM PST
Moon 12:24 PM PST (2/8) 1:44 AM PST (2/8)
Length of Visible Light 11h 40m
Length of Day
10h 49m
Waxing Gibbous, 69% of the Moon is Illuminated
Feb 8
Waxing Gibbous
Feb 14
Full
Feb 22
Last Quarter
Mar 1
New
Mar 8
First Quarter

Hourly Weather History & Observations

Time (PST) Temp. Windchill Dew Point Humidity Pressure Visibility Wind Dir Wind Speed Gust Speed Precip Events Conditions
12:56 AM 54.0 °F - 37.0 °F 53% 30.14 in 10.0 mi SSE 8.1 mph - N/A   Clear
1:56 AM 51.1 °F - 37.9 °F 61% 30.14 in 10.0 mi SSE 4.6 mph - N/A   Clear
2:56 AM 46.9 °F - 36.0 °F 66% 30.13 in 10.0 mi NE 4.6 mph - N/A   Clear
3:56 AM 46.9 °F - 36.0 °F 66% 30.14 in 10.0 mi SE 5.8 mph - N/A   Clear
4:56 AM 50.0 °F - 37.9 °F 63% 30.14 in 10.0 mi SSE 9.2 mph - N/A   Clear
5:56 AM 45.0 °F - 36.0 °F 71% 30.17 in 10.0 mi Calm Calm - N/A   Mostly Cloudy
6:56 AM 45.0 °F 42.6 °F 35.1 °F 68% 30.19 in 10.0 mi WSW 4.6 mph - N/A   Mostly Cloudy
7:56 AM 51.1 °F - 37.9 °F 61% 30.22 in 10.0 mi Calm Calm - N/A   Mostly Cloudy
8:56 AM 59.0 °F - 44.1 °F 58% 30.24 in 10.0 mi South 4.6 mph - N/A   Scattered Clouds
9:56 AM 64.9 °F - 41.0 °F 42% 30.25 in 10.0 mi Variable 3.5 mph - N/A   Partly Cloudy
10:56 AM 68.0 °F - 39.9 °F 36% 30.25 in 10.0 mi Calm Calm - N/A   Partly Cloudy
11:56 AM 70.0 °F - 39.9 °F 33% 30.21 in 10.0 mi ESE 5.8 mph - N/A   Scattered Clouds
12:56 PM 70.0 °F - 37.9 °F 31% 30.19 in 10.0 mi SE 6.9 mph - N/A   Mostly Cloudy
1:56 PM 72.0 °F - 37.9 °F 29% 30.16 in 10.0 mi East 4.6 mph - N/A   Partly Cloudy
2:56 PM 73.9 °F - 37.9 °F 27% 30.14 in 9.0 mi ESE 5.8 mph - N/A   Partly Cloudy
3:56 PM 73.9 °F - 37.0 °F 26% 30.13 in 10.0 mi SE 8.1 mph - N/A   Clear
4:56 PM 72.0 °F - 37.9 °F 29% 30.13 in 10.0 mi SE 5.8 mph - N/A   Clear
5:56 PM 64.9 °F - 41.0 °F 42% 30.14 in 10.0 mi East 4.6 mph - N/A   Clear
6:56 PM 61.0 °F - 39.9 °F 46% 30.15 in 10.0 mi ENE 4.6 mph - N/A   Clear
7:56 PM 57.9 °F - 39.0 °F 49% 30.14 in 10.0 mi Calm Calm - N/A   Clear
8:56 PM 55.0 °F - 37.9 °F 53% 30.16 in 10.0 mi North 9.2 mph - N/A   Clear
9:56 PM 55.0 °F - 41.0 °F 59% 30.15 in 10.0 mi North 4.6 mph - N/A   Clear
10:56 PM 52.0 °F - 39.0 °F 61% 30.17 in 10.0 mi Calm Calm - N/A   Clear
11:56 PM 53.1 °F - 37.0 °F 55% 30.16 in 10.0 mi Calm Calm - N/A   Clear